[[{"header":{"parameterUnit":"m.s-1","parameterCategory":1,"la1":30.2991,"la2":30.254,"lo1":-89.0895,"lo2":-89.0444,"dy":0.0017,"dx":0.0017,"nx":28,"ny":28,"refTime":"2024-07-16T09:00:00:Z","depth":0,"parameterNumber":2,"parameterNumberName":"U-component_of_WINDS"},"data":[0,0,0,0,0,0,0,0,0,0,0,0,0,0,0,0,0,0,0,0,0,0,0,0,0,0,0,0,0,0,0,0,0,0,0,0,0,0,0,0,0,0,0,0,0,0,0,0,0,0,0,0,0,0,0,0,0,0,2.8741,2.8741,0,2.8825,2.8826,2.8827,2.8754,2.875,2.8747,2.8745,2.8832,2.8837,2.8842,0,0,0,0,0,0,0,0,0,0,0,0,0,2.8515,2.852,2.874,2.8742,2.8743,2.8825,2.8826,2.8827,2.8754,2.875,2.8747,2.8743,2.8831,2.8837,2.8843,0,0,0,0,0,0,0,0,0,0,0,0,0,2.8608,2.8521,2.874,2.8716,2.8715,2.8825,2.8826,2.8828,2.8755,2.875,2.8746,2.8741,2.8829,2.8836,2.8844,2.8982,0,0,2.8867,2.8871,0,0,0,0,0,0,0,0,2.8603,2.8616,2.8719,2.8718,2.8717,2.8774,2.8779,2.888,2.8756,2.874,2.8745,2.8739,2.8817,2.8825,2.8851,2.8987,2.899,2.8868,2.8873,2.8876,2.8878,0,0,0,0,0,0,0,2.8596,2.8612,2.8774,2.872,2.8719,2.8701,2.8709,2.8797,2.8803,2.8741,2.8736,2.8747,2.8815,2.8844,2.8852,2.8992,2.8868,2.8875,2.8879,2.8882,2.9242,2.9247,0,0,0,0,0,0,2.8592,2.8607,2.8771,2.8776,2.8647,2.8708,2.8718,2.876,2.8801,2.8803,2.875,2.8743,2.8833,2.8844,2.8855,2.9018,2.8876,2.8883,2.8888,2.9238,2.9243,2.9249,0,0,0,0,0,0,2.8588,2.8608,2.8768,2.8691,2.8709,2.8717,2.8766,2.8764,2.8793,2.8809,2.8809,2.8778,2.883,2.8844,2.8951,2.902,2.8887,2.8894,2.9232,2.9239,2.9246,2.9346,0,0,0,0,0,0,2.8582,2.8607,2.866,2.8692,2.8714,2.8862,2.877,2.8769,2.8806,2.8797,2.8835,2.8837,2.8827,2.8939,2.8958,2.9028,2.89,2.9225,2.9235,2.9244,2.9337,2.9356,2.9373,0,0,0,0,0,2.8574,2.8685,2.8663,2.8683,2.878,2.8866,2.8879,2.8865,2.8812,2.8865,2.8875,2.8836,2.901,2.8951,2.8972,2.9045,2.9221,2.9232,2.9243,2.9329,2.9352,2.9372,0,0,0,0,0,0,2.8661,2.8689,2.8664,2.879,2.8826,2.8854,2.892,2.8891,2.8943,2.8932,2.8913,2.8922,2.9034,2.905,2.8984,2.918,2.9107,2.9123,2.9165,2.9188,2.9205,2.9198,2.8906,0,0,0,0,0,2.8695,2.8762,2.8783,2.8892,2.8911,2.8913,2.895,2.8936,2.8973,2.8988,2.9006,2.9044,2.9106,2.9148,2.9207,2.9339,2.9345,2.94,2.9418,2.9433,2.9446,2.9514,2.9538,2.9285,2.9285,2.9285,0,0,2.8765,2.8789,2.8833,2.891,2.8936,2.9006,2.8926,2.9004,2.9055,2.9,2.91,2.9115,2.9156,2.9275,2.9328,2.9292,2.9517,2.9447,2.9458,2.9464,2.9528,2.9552,2.9573,2.9293,2.9291,2.929,0,0,2.8929,2.8955,2.9046,2.9074,2.9115,2.9115,2.9137,2.917,2.9177,2.9277,2.9236,2.9297,2.9407,2.9437,2.9466,2.964,2.9605,2.966,2.9753,2.982,2.984,2.9857,2.9917,2.9938,2.9673,2.9673,2.9674,0,2.9011,2.9114,2.9097,2.9177,2.9212,2.9164,2.9256,2.9284,2.9343,2.9367,2.9326,2.9461,2.9485,2.9609,2.9651,2.9678,2.9701,2.9654,2.9838,2.9856,2.9872,2.9928,2.9951,2.968,2.9679,2.9678,2.9678,0,2.9212,2.9285,2.9354,2.941,2.9453,2.9539,2.9534,2.9579,2.9561,2.9565,2.9667,2.9695,2.9757,2.9786,2.977,2.9908,2.9883,2.9841,2.9766,2.9902,2.9955,2.9976,2.9688,2.9686,2.9684,2.9683,0,0,2.9433,2.9477,2.9503,2.9527,2.9568,2.9623,2.9707,2.9767,2.9805,2.9847,2.9915,3.0008,2.9968,3.0002,2.9989,3.0048,3.018,2.9998,2.9998,3.0028,3.0331,3.036,3.0386,3.0158,3.0162,3.0166,3.0326,0,2.9596,2.974,2.9726,2.9862,2.9928,2.9883,2.9955,2.9988,2.9994,3.0051,3.0058,3.0123,3.0067,3.0086,3.0143,3.0152,3.024,3.0141,3.022,3.0223,3.0209,3.0414,3.0446,3.0596,3.0347,3.0351,3.0353,0,2.9805,2.9853,2.9995,3.0024,3.0051,3.0116,3.0169,3.0224,3.026,3.026,3.0297,3.0273,3.0356,3.0282,3.0394,3.0327,3.0359,3.0368,3.0374,3.0379,3.0295,3.0422,3.0644,3.0666,3.0386,3.0383,3.0381,0,2.9948,3.0048,3.0146,3.0168,3.0205,3.0252,3.0269,3.0301,3.0337,3.0384,3.0407,3.0463,3.0494,3.0537,3.0529,3.0476,3.0643,3.0569,3.0644,3.0645,3.068,3.0678,3.0908,3.0705,3.0705,3.0704,3.0704,0,3.013,3.0218,3.021,3.027,3.0367,3.0351,3.0447,3.0459,3.0487,3.0548,3.0514,3.0572,3.0558,3.0616,3.061,3.0703,3.0718,3.0719,3.0716,3.0721,3.072,3.074,3.0728,3.071,3.0709,3.0708,3.0707,0,3.0305,3.0304,3.0406,3.0433,3.0441,3.0512,3.0534,3.059,3.0593,3.067,3.0688,3.0693,3.0758,3.0754,3.0829,3.0825,3.0939,3.0925,3.0926,3.0922,3.0997,3.0989,3.1246,3.1278,3.1057,3.1059,3.1061,0,3.042,3.0487,3.052,3.0558,3.0578,3.064,3.0676,3.0663,3.0702,3.0747,3.0797,3.086,3.0908,3.1015,3.1025,3.1081,3.1067,3.1153,3.1075,3.1077,3.1065,3.106,3.1065,3.1168,3.117,3.1172,3.1174,0,3.0624,3.0619,3.0673,3.0726,3.077,3.0812,3.085,3.0883,3.0873,3.0919,3.0985,3.1023,3.1098,3.1159,3.1213,3.123,3.12,3.1199,3.1218,3.1223,3.1219,3.1219,3.0965,3.1192,3.119,3.1189,3.1188,3.1187,3.0771,3.0827,3.0858,3.0918,3.0945,3.0981,3.1034,3.1043,3.1098,3.1157,3.1146,3.1219,3.1252,3.132,3.1343,3.14,3.1369,3.1399,3.1406,3.1413,3.142,3.1213,3.141,3.141,3.1409,3.1409,3.1408,0,3.097,3.0987,3.1043,3.1096,3.1144,3.1111,3.1151,3.1192,3.1257,3.129,3.1338,3.1413,3.1472,3.1487,3.1543,3.1586,3.1573,3.1601,3.1596,3.16,3.1446,3.1421,3.161,3.161,3.161,3.1609,3.1609,3.1609,3.1079,3.1171,3.117,3.1275,3.1292,3.1363,3.1388,3.142,3.1446,3.153,3.1579,3.1588,3.1613,3.1671,3.1723,3.1725,3.1747,3.1779,3.1777,3.1632,3.1611,3.1592,3.1569,3.1785,3.1785,3.1925,3.1927,3.1928]},{"header":{"parameterUnit":"m.s-1","parameterCategory":1,"la1":30.2991,"la2":30.254,"lo1":-89.0895,"lo2":-89.0444,"dy":0.0017,"dx":0.0017,"nx":28,"ny":28,"refTime":"2024-07-16T09:00:00:Z","depth":0,"parameterNumber":3,"parameterNumberName":"V-component_of_WINDS"},"data":[0,0,0,0,0,0,0,0,0,0,0,0,0,0,0,0,0,0,0,0,0,0,0,0,0,0,0,0,0,0,0,0,0,0,0,0,0,0,0,0,0,0,0,0,0,0,0,0,0,0,0,0,0,0,0,0,0,0,-0.5771,-0.5771,0,-0.5791,-0.5792,-0.5792,-0.5812,-0.5813,-0.5813,-0.5813,-0.5833,-0.5834,-0.5834,0,0,0,0,0,0,0,0,0,0,0,0,0,-0.575,-0.575,-0.5771,-0.5771,-0.5772,-0.5791,-0.5792,-0.5792,-0.5812,-0.5813,-0.5813,-0.5813,-0.5833,-0.5834,-0.5834,0,0,0,0,0,0,0,0,0,0,0,0,0,-0.5764,-0.575,-0.5771,-0.5784,-0.5786,-0.5791,-0.5792,-0.5792,-0.5812,-0.5813,-0.5813,-0.5813,-0.5833,-0.5834,-0.5834,-0.5828,0,0,-0.5835,-0.5835,0,0,0,0,0,0,0,0,-0.5763,-0.5764,-0.5782,-0.5783,-0.5785,-0.58,-0.5792,-0.5804,-0.5812,-0.5802,-0.5813,-0.5814,-0.5822,-0.5823,-0.5826,-0.5829,-0.583,-0.5835,-0.5835,-0.5836,-0.5836,0,0,0,0,0,0,0,-0.5762,-0.5764,-0.5779,-0.5782,-0.5784,-0.5789,-0.5791,-0.5794,-0.5809,-0.5803,-0.5805,-0.5807,-0.5823,-0.5826,-0.5827,-0.583,-0.5835,-0.5836,-0.5836,-0.5836,-0.5831,-0.583,0,0,0,0,0,0,-0.5759,-0.5763,-0.5778,-0.578,-0.5775,-0.5789,-0.5792,-0.5795,-0.5809,-0.5812,-0.5806,-0.5808,-0.5825,-0.5826,-0.5827,-0.5822,-0.5836,-0.5836,-0.5836,-0.5831,-0.583,-0.583,0,0,0,0,0,0,-0.5758,-0.576,-0.5778,-0.5772,-0.5774,-0.5789,-0.5792,-0.5795,-0.5798,-0.5812,-0.5815,-0.5807,-0.5825,-0.5827,-0.5828,-0.5823,-0.5836,-0.5837,-0.5831,-0.5831,-0.583,-0.5811,0,0,0,0,0,0,-0.5758,-0.576,-0.5758,-0.5771,-0.5775,-0.5778,-0.5792,-0.5795,-0.5798,-0.58,-0.5813,-0.5815,-0.5826,-0.5827,-0.5828,-0.5824,-0.5837,-0.5832,-0.5831,-0.583,-0.5812,-0.581,-0.5808,0,0,0,0,0,-0.5757,-0.5751,-0.5757,-0.5759,-0.5772,-0.5777,-0.5779,-0.5791,-0.5798,-0.5796,-0.5805,-0.5815,-0.5824,-0.5827,-0.5829,-0.5824,-0.5832,-0.5831,-0.583,-0.5813,-0.581,-0.5808,0,0,0,0,0,0,-0.5736,-0.5753,-0.576,-0.5759,-0.5767,-0.5781,-0.5779,-0.5788,-0.5794,-0.5795,-0.581,-0.5812,-0.5812,-0.5818,-0.5822,-0.582,-0.5829,-0.5829,-0.5816,-0.5813,-0.5811,-0.5809,-0.5837,0,0,0,0,0,-0.5731,-0.5734,-0.5749,-0.5746,-0.575,-0.5764,-0.5766,-0.5775,-0.5784,-0.5787,-0.5796,-0.5804,-0.5809,-0.5811,-0.5816,-0.5813,-0.5817,-0.5811,-0.5809,-0.5807,-0.5806,-0.5806,-0.5804,-0.5827,-0.5827,-0.5827,0,0,-0.5721,-0.5731,-0.5732,-0.5742,-0.5749,-0.5752,-0.5766,-0.5768,-0.5771,-0.5787,-0.5789,-0.5796,-0.5806,-0.5805,-0.5805,-0.5811,-0.5801,-0.5806,-0.5804,-0.5805,-0.5805,-0.5802,-0.58,-0.5827,-0.5827,-0.5827,0,0,-0.5704,-0.5712,-0.5711,-0.5718,-0.5729,-0.5738,-0.5738,-0.5751,-0.5757,-0.5759,-0.5772,-0.5775,-0.5782,-0.5789,-0.5793,-0.578,-0.5789,-0.5781,-0.577,-0.5769,-0.5767,-0.5766,-0.5761,-0.576,-0.578,-0.578,-0.578,0,-0.5691,-0.5695,-0.5709,-0.5711,-0.5715,-0.5731,-0.573,-0.5736,-0.5748,-0.5751,-0.5756,-0.5767,-0.5774,-0.5776,-0.5773,-0.5775,-0.5776,-0.578,-0.5767,-0.5765,-0.5764,-0.576,-0.5758,-0.5779,-0.5779,-0.578,-0.578,0,-0.5678,-0.5681,-0.5679,-0.569,-0.5695,-0.5695,-0.5709,-0.5712,-0.572,-0.5729,-0.5732,-0.5742,-0.5749,-0.575,-0.5758,-0.5753,-0.5756,-0.5764,-0.5774,-0.576,-0.5757,-0.5755,-0.5778,-0.5778,-0.5779,-0.5779,0,0,-0.5648,-0.5668,-0.5666,-0.5672,-0.5686,-0.5688,-0.569,-0.5698,-0.57,-0.5708,-0.5709,-0.5716,-0.5724,-0.5728,-0.5738,-0.5737,-0.5727,-0.5746,-0.5746,-0.5742,-0.5722,-0.5716,-0.5714,-0.5733,-0.5733,-0.5733,-0.5721,0,-0.5633,-0.5637,-0.565,-0.5649,-0.5653,-0.5668,-0.567,-0.5678,-0.5687,-0.5691,-0.57,-0.5705,-0.5715,-0.5718,-0.5718,-0.5728,-0.5723,-0.5729,-0.5735,-0.5735,-0.5732,-0.5712,-0.5705,-0.5693,-0.572,-0.572,-0.572,0,-0.5617,-0.5624,-0.5624,-0.5638,-0.564,-0.5641,-0.565,-0.5654,-0.5664,-0.567,-0.5676,-0.5687,-0.569,-0.5699,-0.5703,-0.5707,-0.571,-0.5716,-0.5715,-0.5716,-0.5726,-0.5712,-0.569,-0.5688,-0.5717,-0.5718,-0.5718,0,-0.5595,-0.5605,-0.5606,-0.561,-0.5627,-0.5627,-0.5634,-0.5645,-0.5649,-0.5657,-0.566,-0.5667,-0.5672,-0.5677,-0.569,-0.5696,-0.5693,-0.5703,-0.5698,-0.5698,-0.5696,-0.5696,-0.5675,-0.5699,-0.5699,-0.5699,-0.5699,0,-0.5577,-0.5576,-0.5597,-0.5597,-0.5597,-0.5613,-0.5612,-0.5621,-0.563,-0.5633,-0.5647,-0.565,-0.5666,-0.5671,-0.5681,-0.5683,-0.5685,-0.569,-0.5693,-0.5689,-0.5688,-0.5691,-0.5692,-0.5698,-0.5698,-0.5699,-0.5699,0,-0.5552,-0.5566,-0.5568,-0.5584,-0.5588,-0.5588,-0.5601,-0.5603,-0.5613,-0.5616,-0.5618,-0.5633,-0.564,-0.5653,-0.5663,-0.5669,-0.5669,-0.5674,-0.5665,-0.5667,-0.5661,-0.5662,-0.5641,-0.5639,-0.5664,-0.5664,-0.5663,0,-0.554,-0.554,-0.5556,-0.5559,-0.5566,-0.5571,-0.5575,-0.559,-0.5595,-0.5607,-0.5607,-0.5614,-0.5621,-0.563,-0.5642,-0.565,-0.5655,-0.5647,-0.5656,-0.5652,-0.5655,-0.5655,-0.5655,-0.5645,-0.5644,-0.5644,-0.5644,0,-0.5517,-0.5524,-0.553,-0.5538,-0.5544,-0.5551,-0.5559,-0.5561,-0.5578,-0.5582,-0.5589,-0.5594,-0.5605,-0.5612,-0.5622,-0.5629,-0.5639,-0.5641,-0.564,-0.5636,-0.5632,-0.5634,-0.566,-0.5641,-0.5642,-0.5642,-0.5642,-0.5642,-0.5498,-0.5499,-0.5511,-0.5517,-0.5525,-0.5533,-0.5535,-0.5546,-0.5552,-0.5562,-0.557,-0.5576,-0.5588,-0.5602,-0.5608,-0.5613,-0.5619,-0.5617,-0.5617,-0.5617,-0.5615,-0.5631,-0.5615,-0.5615,-0.5615,-0.5615,-0.5616,0,-0.5476,-0.5484,-0.549,-0.5502,-0.5507,-0.5517,-0.5527,-0.5531,-0.5536,-0.5545,-0.5552,-0.556,-0.5567,-0.558,-0.5589,-0.5591,-0.5596,-0.5592,-0.5592,-0.5594,-0.561,-0.561,-0.5588,-0.5588,-0.5588,-0.5588,-0.5588,-0.5588,-0.5465,-0.5467,-0.5476,-0.5482,-0.5491,-0.5497,-0.5502,-0.5509,-0.5517,-0.5526,-0.5532,-0.5541,-0.5552,-0.5562,-0.5569,-0.5573,-0.5575,-0.557,-0.5576,-0.559,-0.5593,-0.5595,-0.5595,-0.5571,-0.5571,-0.5559,-0.5559,-0.5559]}]]